User: anonymous   Login
Location: Unspecified
(0.0000°N, 0.0000°E)
Time: 18:56:05
(UTC+00:00)
Language:

COSMOS 2454 - Orbit

View from above orbital plane
View from above orbital plane
View from above satellite
View from above satellite

Ground track
Ground track

The orbit data is extracted from the following two-line orbital elements,

1 35635U 09039A   17145.93595668 +.00000029 +00000-0 +10805-4 0  9991
2 35635 082.9578 015.4346 0019802 009.8650 350.2894 13.89612030397962
Epoch (UTC): 25 May 2017 22:27:46
Eccentricity: 0.0019802
inclination: 82.9578°
perigee height: 915 km
apogee height: 944 km
right ascension of ascending node: 15.4346°
argument of perigee: 9.8650°
revolutions per day: 13.89612030
mean anomaly at epoch: 350.2894°
orbit number at epoch: 39796

The dashed part of the orbit path shows where the satellite is in the earth's shadow,  

DLR